Weather History for K0CO - August, 2013

Change the Weather History Date:

Saturday, August 17, 2013

  Actual Average (KDEN) Record (KDEN)
Temperature  
Mean Temperature 50 °F 73 °F  
Max Temperature 57 °F 87 °F 97 °F (2013)
Min Temperature 44 °F 58 °F 44 °F (1960)
Degree Days  
Heating Degree Days 14 0  
Month to date heating degree days 0  
Since 1 June heating degree days 68  
Since 1 July heating degree days 6  
Cooling Degree Days 0 8  
Month to date cooling degree days 154  
Year to date cooling degree days 598  
Since 1 June cooling degree days 576  
Moisture  
Dew Point 24 °F    
Average Humidity 35    
Maximum Humidity 38    
Minimum Humidity 33    
Precipitation  
Precipitation 0.00 in 0.05 in 1.45 in (2000)
Month to date precipitation 1.10  
Year to date precipitation 10.77  
Snow  
Snow 0.00 in - - ()
Month to date snowfall  
Since 1 June snowfall  
Since 1 July snowfall  
Snow Depth -    
Sea Level Pressure  
Sea Level Pressure 30.77 in    
Wind  
Wind Speed 10 mph (WNW)    
Max Wind Speed 18 mph    
Max Gust Speed 23 mph    
Visibility 10 miles    
Events      
T = Trace of Precipitation, MM = Missing Value Source: NWS Daily Summary

Daily Weather History Graph

Daily Weather History Graph

Search for Another Location

Airport or City:

Trip Planner

Search our weather history database for the weather conditions in past years. The results will help you decide how hot, cold, wet, or windy it might be!

Date:

Astronomy

Aug. 17, 2013 Rise Set
Actual Time 6:17 AM MDT 7:56 PM MDT
Civil Twilight 5:48 AM MDT 8:24 PM MDT
Nautical Twilight 5:13 AM MDT 8:59 PM MDT
Astronomical Twilight 4:36 AM MDT 9:36 PM MDT
Moon 5:13 PM MDT (8/17) 2:23 AM MDT (8/17)
Length of Visible Light 14h 36m
Length of Day
13h 38m
Waxing Gibbous, 85% of the Moon is Illuminated
Aug 17
Waxing Gibbous
Aug 20
Full
Aug 28
Last Quarter
Sep 5
New
Sep 12
First Quarter

Hourly Weather History & Observations

Time (MDT) Temp. Windchill Dew Point Humidity Pressure Visibility Wind Dir Wind Speed Gust Speed Precip Events Conditions
12:09 AM 46.4 °F 41.5 °F 19.4 °F 34% 30.80 in 10.0 mi SE 10.4 mph - N/A   Clear
12:29 AM 46.4 °F 42.4 °F 19.4 °F 34% 30.79 in 10.0 mi ESE 8.1 mph - N/A   Clear
12:49 AM 46.4 °F 42.9 °F 21.2 °F 37% 30.79 in 10.0 mi SE 6.9 mph - N/A   Clear
1:09 AM 46.4 °F 45.2 °F 19.4 °F 34% 30.79 in 10.0 mi South 3.5 mph - N/A   Clear
1:29 AM 46.4 °F 42.9 °F 19.4 °F 34% 30.79 in 10.0 mi SW 6.9 mph - N/A   Clear
1:49 AM 46.4 °F 41.9 °F 19.4 °F 34% 30.78 in 10.0 mi SW 9.2 mph - N/A   Clear
2:09 AM 46.4 °F 41.9 °F 19.4 °F 34% 30.77 in 10.0 mi WSW 9.2 mph - N/A   Clear
2:29 AM 46.4 °F 41.9 °F 19.4 °F 34% 30.77 in 10.0 mi WSW 9.2 mph - N/A   Clear
2:49 AM 44.6 °F 39.7 °F 19.4 °F 37% 30.77 in 10.0 mi WSW 9.2 mph - N/A   Clear
3:09 AM 46.4 °F 41.9 °F 19.4 °F 34% 30.76 in 10.0 mi WSW 9.2 mph - N/A   Clear
3:29 AM 46.4 °F 41.5 °F 19.4 °F 34% 30.76 in 10.0 mi WSW 10.4 mph - N/A   Scattered Clouds
3:49 AM 46.4 °F 41.1 °F 19.4 °F 34% 30.76 in 10.0 mi WSW 11.5 mph - N/A   Scattered Clouds
4:09 AM 46.4 °F 41.5 °F 21.2 °F 37% 30.76 in 10.0 mi West 10.4 mph - N/A   Mostly Cloudy
4:29 AM 46.4 °F 40.7 °F 19.4 °F 34% 30.76 in 10.0 mi West 12.7 mph - N/A   Mostly Cloudy
4:49 AM 46.4 °F 40.4 °F 19.4 °F 34% 30.76 in 10.0 mi West 13.8 mph - N/A   Scattered Clouds
5:09 AM 46.4 °F 40.1 °F 19.4 °F 34% 30.76 in 10.0 mi West 15.0 mph - N/A   Mostly Cloudy
5:29 AM 46.4 °F 40.4 °F 19.4 °F 34% 30.76 in 10.0 mi West 13.8 mph - N/A   Mostly Cloudy
5:49 AM 46.4 °F 39.8 °F 19.4 °F 34% 30.76 in 10.0 mi West 16.1 mph - N/A   Overcast
6:09 AM 46.4 °F 40.1 °F 21.2 °F 37% 30.76 in 10.0 mi West 15.0 mph - N/A   Overcast
6:29 AM 46.4 °F 39.8 °F 19.4 °F 34% 30.77 in 10.0 mi West 16.1 mph - N/A   Overcast
6:49 AM 46.4 °F 39.8 °F 19.4 °F 34% 30.77 in 10.0 mi West 16.1 mph - N/A   Overcast
7:09 AM 46.4 °F 39.2 °F 19.4 °F 34% 30.78 in 10.0 mi WNW 18.4 mph - N/A   Mostly Cloudy
7:29 AM 46.4 °F 40.4 °F 21.2 °F 37% 30.78 in 10.0 mi WNW 13.8 mph - N/A   Mostly Cloudy
7:49 AM 46.4 °F 39.5 °F 19.4 °F 34% 30.78 in 10.0 mi WNW 17.3 mph - N/A   Scattered Clouds
8:09 AM 46.4 °F 40.1 °F 21.2 °F 37% 30.79 in 10.0 mi WNW 15.0 mph - N/A   Scattered Clouds
8:29 AM 48.2 °F - 21.2 °F 34% 30.79 in 10.0 mi WNW 12.7 mph - N/A   Scattered Clouds
8:49 AM 50.0 °F - 23.0 °F 35% 30.80 in 10.0 mi WNW 13.8 mph 17.3 mph N/A   Mostly Cloudy
9:09 AM 51.8 °F - 23.0 °F 33% 30.80 in 10.0 mi NW 5.8 mph - N/A   Mostly Cloudy
9:29 AM 51.8 °F - 24.8 °F 35% 30.80 in 10.0 mi WNW 5.8 mph - N/A   Overcast
9:49 AM 51.8 °F - 26.6 °F 38% 30.80 in 10.0 mi WNW 9.2 mph - N/A   Mostly Cloudy
10:09 AM 51.8 °F - 24.8 °F 35% 30.80 in 10.0 mi NW 10.4 mph 20.7 mph N/A   Mostly Cloudy
10:28 AM 53.6 °F - 26.6 °F 35% 30.80 in 10.0 mi WNW 8.1 mph - N/A   Mostly Cloudy
10:48 AM 53.6 °F - 26.6 °F 35% 30.81 in 10.0 mi WNW 13.8 mph 21.9 mph N/A   Mostly Cloudy
11:08 AM 53.6 °F - 26.6 °F 35% 30.80 in 10.0 mi WNW 18.4 mph - N/A   Mostly Cloudy
11:28 AM 53.6 °F - 26.6 °F 35% 30.80 in 10.0 mi NNW 9.2 mph 23.0 mph N/A   Scattered Clouds
11:48 AM 55.4 °F - 28.4 °F 36% 30.80 in 10.0 mi North 8.1 mph - N/A   Scattered Clouds
12:08 PM 53.6 °F - 26.6 °F 35% 30.79 in 10.0 mi NNE 8.1 mph 20.7 mph N/A   Mostly Cloudy
12:28 PM 53.6 °F - 26.6 °F 35% 30.79 in 10.0 mi North 8.1 mph 18.4 mph N/A   Overcast
12:48 PM 55.4 °F - 28.4 °F 36% 30.79 in 10.0 mi NNW 8.1 mph - N/A   Mostly Cloudy
1:08 PM 57.2 °F - 30.2 °F 36% 30.78 in 10.0 mi NW 13.8 mph 19.6 mph N/A   Mostly Cloudy
1:28 PM 53.6 °F - 26.6 °F 35% 30.78 in 10.0 mi North 6.9 mph - N/A   Mostly Cloudy
1:48 PM 55.4 °F - 28.4 °F 36% 30.77 in 10.0 mi NW 5.8 mph - N/A   Mostly Cloudy
2:08 PM 55.4 °F - 28.4 °F 36% 30.77 in 10.0 mi NNW 11.5 mph - N/A   Mostly Cloudy
2:28 PM 53.6 °F - 28.4 °F 38% 30.76 in 10.0 mi NNE 5.8 mph - N/A   Mostly Cloudy
2:48 PM 53.6 °F - 28.4 °F 38% 30.76 in 10.0 mi NNW 6.9 mph - N/A   Overcast
3:08 PM 53.6 °F - 26.6 °F 35% 30.76 in 10.0 mi North 6.9 mph - N/A   Overcast
3:28 PM 53.6 °F - 28.4 °F 38% 30.76 in 10.0 mi NNE 5.8 mph - N/A   Overcast
3:48 PM 55.4 °F - 28.4 °F 36% 30.76 in 10.0 mi North 3.5 mph - N/A   Mostly Cloudy
4:08 PM 57.2 °F - 30.2 °F 36% 30.75 in 10.0 mi NNE 6.9 mph 20.7 mph N/A   Overcast
4:28 PM 55.4 °F - 28.4 °F 36% 30.75 in 10.0 mi NW 10.4 mph - N/A   Mostly Cloudy
4:48 PM 53.6 °F - 28.4 °F 38% 30.75 in 10.0 mi NNW 3.5 mph - N/A   Scattered Clouds
5:08 PM 53.6 °F - 26.6 °F 35% 30.74 in 10.0 mi WNW 12.7 mph - N/A   Mostly Cloudy
5:28 PM 53.6 °F - 26.6 °F 35% 30.75 in 10.0 mi WSW 6.9 mph - N/A   Overcast
5:48 PM 53.6 °F - 26.6 °F 35% 30.74 in 10.0 mi West 11.5 mph - N/A   Overcast
6:08 PM 51.8 °F - 24.8 °F 35% 30.75 in 10.0 mi NW 10.4 mph 20.7 mph N/A   Overcast
6:28 PM 51.8 °F - 23.0 °F 33% 30.75 in 10.0 mi East 12.7 mph - N/A   Light Drizzle
6:48 PM 50.0 °F - 23.0 °F 35% 30.75 in 10.0 mi North 3.5 mph - N/A   Overcast
7:08 PM 51.8 °F - 24.8 °F 35% 30.74 in 10.0 mi North 8.1 mph - N/A   Scattered Clouds
7:28 PM 50.0 °F - 23.0 °F 35% 30.75 in 10.0 mi North 8.1 mph - N/A   Mostly Cloudy
7:48 PM 50.0 °F - 23.0 °F 35% 30.75 in 10.0 mi West 8.1 mph - N/A   Mostly Cloudy
8:08 PM 50.0 °F - 23.0 °F 35% 30.75 in 10.0 mi WNW 8.1 mph - N/A   Mostly Cloudy
8:29 PM 50.0 °F - 23.0 °F 35% 30.75 in 10.0 mi WNW 8.1 mph - N/A   Overcast
8:49 PM 50.0 °F - 23.0 °F 35% 30.75 in 10.0 mi West 6.9 mph - N/A   Mostly Cloudy
9:09 PM 50.0 °F - 23.0 °F 35% 30.75 in 10.0 mi West 12.7 mph 23.0 mph N/A   Mostly Cloudy
9:29 PM 51.8 °F - 24.8 °F 35% 30.75 in 10.0 mi SW 6.9 mph - N/A   Overcast
9:49 PM 50.0 °F - 23.0 °F 35% 30.75 in 10.0 mi SW 6.9 mph - N/A   Overcast
10:09 PM 51.8 °F - 23.0 °F 33% 30.75 in 10.0 mi WSW 4.6 mph - N/A   Overcast
10:29 PM 50.0 °F - 23.0 °F 35% 30.76 in 10.0 mi SW 5.8 mph - N/A   Mostly Cloudy
10:49 PM 50.0 °F - 23.0 °F 35% 30.75 in 10.0 mi SW 6.9 mph - N/A   Scattered Clouds
11:09 PM 50.0 °F - 23.0 °F 35% 30.75 in 10.0 mi SSW 5.8 mph - N/A   Mostly Cloudy
11:29 PM 50.0 °F - 23.0 °F 35% 30.75 in 10.0 mi SSE 4.6 mph - N/A   Overcast
11:49 PM 50.0 °F - 23.0 °F 35% 30.75 in 10.0 mi ESE 8.1 mph - N/A   Overcast